Content
SEND FEEDBACK

Daily
Averages
Monthly
Summary
United States of America

EPPING, NORTH DAKOTA


Home > North America > United States > North Dakota
Elevation: 1951 feet     Latitude: 48 11N     Longitude: 103 38W

WEATHER
 
SELECT A DAY
Number of Records: 204,356;   Date Range: 1/1/95 - 7/7/14
 
SHARE

PRINT THIS DATA

[ ← Previous Day ]
WEATHER ALMANAC - JANUARY 31, 2013
[ Next Day → ]
[ °C ]   °F
Weather ElementAverageHighLow
Temperature-14.1 °F-2 °F (11:52 pm)-20.9 °F (7:52 am)
Dewpoint-20.8 °F-8 °F (11:52 pm)-27 °F (8:52 am)
Humidity71.7 %77 % (12:40 am)64 % (2:52 pm)
Barometer30.39 in30.56 in (9:52 am)30.15 in (12:40 am)
Wind Speed11.2 mph21.9 mph (12:52 am)
Wind Gust25.3 mph (12:52 am)
Weather ElementAverage
Visibility9 mi
Wind DirectionWSW (258.7 °)

Weather ElementTotal
Precipitation---
Heating Degree Days76.5 (Base 65)
Averaged from 30 records on January 31, 2013
WEATHER CONDITIONS BREAKOUT
WIND DIRECTION BREAKOUT
WEATHER BY HOUR - JANUARY 31, 2013
[ °C ]   °F
Local TimeTemperatureDewpointHumidityBarometerVisibilityWind DirectionWind SpeedGust SpeedPrecipitationEventsConditions
12:40 AM-14.8 °F-20.2 °F77 %30.15 in3.0 miNNW (330°)20.7 mph0.00 inOvercast
12:45 AM-14.8 °F-20.2 °F77 %30.15 in4.0 miNNW (340°)18.4 mph0.00 inOvercast
12:52 AM-15.0 °F-22.0 °F71 %30.36 in4.0 miNNW (340°)21.9 mph25.3 mph0.00 inOvercast
1:09 AM-14.8 °F-22.0 °F70 %30.16 in4.0 miNNW (330°)16.1 mph0.00 inSnowLight Snow
1:31 AM-16.6 °F-22.0 °F76 %30.17 in8.0 miNNW (330°)20.7 mph0.00 inOvercast
1:41 AM-16.6 °F-22.0 °F76 %30.18 in9.0 miNW (320°)16.1 mph0.00 inOvercast
1:52 AM-16.1 °F-22.0 °F74 %30.39 in10.0 miNW (320°)16.1 mph0.00 inMostly Cloudy
2:39 AM-16.6 °F-22.0 °F76 %30.21 in7.0 miNW (320°)17.3 mph0.00 inMostly Cloudy
2:52 AM-17.0 °F-23.1 °F74 %30.43 in10.0 miNW (320°)16.1 mph0.00 inScattered Clouds
3:52 AM-18.0 °F-24.0 °F74 %30.45 in10.0 miWNW (300°)11.5 mphClear
4:52 AM-18.9 °F-26.0 °F70 %30.47 in10.0 miWNW (300°)13.8 mphClear
5:52 AM-20.0 °F-26.0 °F74 %30.50 in10.0 miWNW (300°)15.0 mphClear
6:52 AM-20.0 °F-26.0 °F74 %30.52 in10.0 miWNW (300°)10.4 mphClear
7:52 AM-20.9 °F-26.0 °F77 %30.53 in10.0 miWSW (250°)5.8 mphClear
8:52 AM-20.9 °F-27.0 °F73 %30.54 in10.0 miWest (270°)10.4 mphClear
9:52 AM-20.0 °F-27.0 °F70 %30.56 in10.0 miWest (270°)8.1 mphClear
10:52 AM-17.0 °F-25.1 °F67 %30.56 in10.0 miWNW (300°)13.8 mphClear
11:52 AM-15.0 °F-23.1 °F67 %30.55 in10.0 miWest (280°)10.4 mphClear
12:52 PM-14.1 °F-22.0 °F68 %30.53 in10.0 miWest (270°)10.4 mphClear
1:52 PM-13.0 °F-20.9 °F68 %30.51 in10.0 miWest (270°)11.5 mphClear
2:52 PM-11.0 °F-20.0 °F64 %30.48 in10.0 miWest (260°)11.5 mphClear
3:52 PM-9.9 °F-18.9 °F65 %30.46 in10.0 miWest (260°)9.2 mphClear
4:52 PM-9.9 °F-18.9 °F65 %30.45 in10.0 miWest (270°)6.9 mphClear
5:52 PM-11.9 °F-18.9 °F71 %30.43 in10.0 miSW (230°)4.6 mphClear
6:52 PM-9.9 °F-18.0 °F68 %30.40 in10.0 miCalmMostly Cloudy
7:52 PM-9.0 °F-16.1 °F71 %30.38 in10.0 miCalmOvercast
8:52 PM-8.0 °F-15.0 °F71 %30.35 in10.0 miSSE (160°)4.6 mphOvercast
9:52 PM-6.0 °F-13.0 °F72 %30.32 in10.0 miSouth (190°)3.5 mphOvercast
10:52 PM-4.0 °F-9.9 °F76 %30.28 in10.0 miSouth (180°)4.6 mph0.00 inSnowLight Snow
11:52 PM-2.0 °F-8.0 °F76 %30.24 in10.0 miSSE (150°)5.8 mph0.00 inOvercast
Hourly data recorded from KISN, located miles away from Epping, North Dakota







STORIES FROM OUR PARTNERS